Flag for U.S.A. Weather past 2 weeks in St. Petersburg, Florida, U.S.A.

Now
92 °F

Sunny.


Feels Like: 104 °F
Forecast: 80 / 93 °F
Wind: 6 mph from Southeast

Location: Whitted Airport

Current Time: Aug 21, 2014 at 4:19:07 PM

Latest Report: Aug 21, 2014 at 3:53 PM


Visibility: 10 mi

Pressure: 30.04 "Hg

Humidity: 60%

Dew point: 76 °F

Location of St. PetersburgLocation

Historic Weather in St. Petersburg — Graph

°F

St. Petersburg temperature yesterday

Maximum temperature yesterday: 91 °F (at 3:53 PM)
Minimum temperature yesterday: 82 °F (at 6:53 AM)
Average temperature yesterday: 87 °F

Past Weeks' High & Low Weather Summary

 TemperatureHumidityPressure
High92 °F (Aug 21, 1:53 PM)91% (Aug 17, 8:53 AM)30.12 "Hg (Aug 17, 8:53 AM)
Low76 °F (Aug 15, 1:53 PM)50% (Aug 19, 1:53 PM)29.93 "Hg (Aug 12, 6:53 PM)
Average84 °F73%30.01 "Hg
* Reported Aug 6 2:53 PM — Aug 21 2:53 PM, St. Petersburg, Weather by CustomWeather, © 2014

Note: Actual official high and low records may vary slightly from our data, if they occured in-between our weather recording intervals... More about our weather records

Advertising

St. Petersburg weather history for previous 24 hours

 ConditionsComfort  
Time TempWeatherWind HumidityBarometerVisibility
2:53 PM
Aug 21
92 °FPassing clouds.7 mph51%30.06 "Hg10 mi
1:53 PM92 °FSunny.6 mph54%30.08 "Hg10 mi
12:53 PM90 °FSunny.6 mph59%30.10 "Hg10 mi
11:53 AM89 °FSunny.6 mph63%30.12 "Hg10 mi
10:53 AM88 °FSunny.7 mph67%30.12 "Hg10 mi
9:53 AM86 °FSunny.8 mph77%30.11 "Hg10 mi
8:53 AM86 °FSunny.6 mph75%30.11 "Hg10 mi
7:53 AM84 °FClear.No wind80%30.09 "Hg10 mi
6:53 AM83 °FClear.3 mph82%30.07 "Hg10 mi
5:53 AM83 °FClear.3 mph82%30.06 "Hg10 mi
4:53 AM84 °FClear.3 mph80%30.06 "Hg10 mi
3:53 AM84 °FPassing clouds.No wind77%30.06 "Hg10 mi
2:53 AM85 °FClear.3 mph77%30.07 "Hg10 mi
1:53 AM84 °FClear.No wind77%30.08 "Hg10 mi
12:53 AM85 °FClear.6 mph75%30.08 "Hg10 mi
11:53 PM
Aug 20
85 °FClear.7 mph75%30.08 "Hg10 mi
10:53 PM85 °FClear.5 mph75%30.08 "Hg10 mi
9:53 PM86 °FClear.5 mph72%30.07 "Hg10 mi
8:53 PM87 °FSunny.6 mph67%30.06 "Hg10 mi
7:53 PM88 °FSunny.6 mph63%30.05 "Hg10 mi
6:53 PM90 °FSunny.9 mph56%30.03 "Hg10 mi
5:53 PM90 °FPassing clouds.9 mph56%30.03 "Hg10 mi
4:53 PM91 °FPartly sunny.3 mph60%30.03 "Hg10 mi
Weather by CustomWeather, © 2014

See weather overviewHow to use our weather pages